Location: Baumgarten
(49.0970°N, 12.7493°E)
Time: 18:58:37
(UTC+00:00)

Cosmos 1420 Rocket - Pass Details

Date: 05 July 2020
Orbit: 754 x 781 km, 74.0° (Epoch: 11 August)

Event Time Altitude Azimuth Distance (km) Brightness Sun altitude
Rises 22:50:35 0° 335° (NNW) 3,250 8.6 -18.1°
Reaches altitude 10° 22:52:58 10° 333° (NNW) 2,324 7.5 -18.1°
Maximum altitude 22:58:13 71° 250° (WSW) 822 4.0 -18.2°
Enters shadow 23:00:34 34° 175° (S) 1,272 4.6 -18.2°
